Weather History for LIVE - November, 2012

Change the Weather History Date:

Friday, November 9, 2012

  Actual Average Record
Temperature  
Mean Temperature 46 °F -  
Max Temperature 57 °F 41 °F 57 °F (2012)
Min Temperature 35 °F 28 °F 19 °F (2004)
Degree Days  
Heating Degree Days 19    
Moisture  
Dew Point 27 °F    
Average Humidity 60    
Maximum Humidity 81    
Minimum Humidity 18    
Precipitation  
Precipitation 0.00 in - - ()
Sea Level Pressure  
Sea Level Pressure 30.07 in    
Wind  
Wind Speed 4 mph ()    
Max Wind Speed 8 mph    
Max Gust Speed -    
Averages and records for this station are not official NWS values.
T = Trace of Precipitation, MM = Missing Value Source: Averaged Metar Reports

Daily Weather History Graph

Daily Weather History Graph

Search for Another Location

Airport or City:

Trip Planner

Search our weather history database for the weather conditions in past years. The results will help you decide how hot, cold, wet, or windy it might be!

Date:

Astronomy

Nov. 09, 2012 Rise Set
Actual Time 7:12 AM CET 4:50 PM CET
Civil Twilight 6:39 AM CET 5:23 PM CET
Nautical Twilight 6:03 AM CET 5:59 PM CET
Astronomical Twilight 5:27 AM CET 6:35 PM CET
Moon 1:34 AM CET (11/9) 2:10 PM CET (11/9)
Length of Visible Light 10h 43m
Length of Day
9h 38m
Waning Crescent, 25% of the Moon is Illuminated
Nov 9
Waning Crescent
Nov 13
New
Nov 20
First Quarter
Nov 28
Full
Dec 6
Last Quarter

Hourly Weather History & Observations

Time (CET) Temp. Windchill Dew Point Humidity Pressure Visibility Wind Dir Wind Speed Gust Speed Precip Events Conditions
12:55 AM 37.4 °F 33.8 °F 28.4 °F 70% 30.09 in - North 4.6 mph - N/A   Clear
1:55 AM 37.4 °F 32.8 °F 28.4 °F 70% 30.09 in - North 5.8 mph - N/A   Clear
2:55 AM 37.4 °F 32.8 °F 28.4 °F 70% 30.06 in - North 5.8 mph - N/A   Clear
3:55 AM 37.4 °F 32.8 °F 26.6 °F 65% 30.06 in - North 5.8 mph - N/A   Clear
4:55 AM 37.4 °F 33.8 °F 28.4 °F 70% 30.06 in - North 4.6 mph - N/A   Clear
5:55 AM 35.6 °F 32.8 °F 28.4 °F 75% 30.06 in - North 3.5 mph - N/A   Clear
6:55 AM 35.6 °F 31.7 °F 28.4 °F 75% 30.09 in - North 4.6 mph - N/A   Clear
7:55 AM 35.6 °F 31.7 °F 28.4 °F 75% 30.09 in - North 4.6 mph - N/A   Clear
8:55 AM 35.6 °F 31.7 °F 28.4 °F 75% 30.09 in - North 4.6 mph - N/A   Clear
9:55 AM 42.8 °F 39.3 °F 26.6 °F 53% 30.09 in - North 5.8 mph - N/A   Clear
10:55 AM 46.4 °F 43.5 °F 23.0 °F 40% 30.09 in - North 5.8 mph - N/A   Clear
11:55 AM 50.0 °F - 21.2 °F 32% 30.09 in - North 4.6 mph - N/A   Clear
12:55 PM 53.6 °F - 12.2 °F 19% 30.06 in - North 4.6 mph - N/A   Clear
1:55 PM 57.2 °F - 14.0 °F 18% 30.04 in - NW 4.6 mph - N/A   Clear
2:55 PM 57.2 °F - 15.8 °F 20% 30.04 in - WNW 5.8 mph - N/A   Clear
3:55 PM 48.2 °F - 32.0 °F 54% 30.04 in - SW 4.6 mph - N/A   Clear
4:55 PM 46.4 °F 45.2 °F 32.0 °F 57% 30.04 in - ESE 3.5 mph - N/A   Clear
5:55 PM 44.6 °F 41.4 °F 33.8 °F 66% 30.04 in - South 5.8 mph - N/A   Clear
8:55 PM 41.0 °F 35.8 °F 32.0 °F 70% 30.06 in - SW 8.1 mph - N/A   Clear
9:55 PM 41.0 °F 37.1 °F 35.6 °F 81% 30.09 in - South 5.8 mph - N/A   Clear
10:55 PM 41.0 °F - 35.6 °F 81% 30.09 in - Calm Calm - N/A   Clear
11:55 PM 41.0 °F - 33.8 °F 76% 30.09 in - Calm Calm - N/A   Clear